User: anonymous
Location: Unspecified
(0.0000°N, 0.0000°E)
Time: 04:41:27
(UTC+02:00)
Language:

Atlas Centaur 2 - Orbit

View from above orbital plane
View from above orbital plane
View from above satellite
View from above satellite

Ground track
Ground track

The orbit data is extracted from the following two-line orbital elements,

1 00694U 63047A   14112.09477931  .00003678  00000-0  48272-3 0  4881
2 00694 030.3579 013.5769 0599001 131.6263 005.0638 13.99375298521023
Epoch (UTC): 22 April 2014 02:16:28
Eccentricity: 0.0599001
inclination: 30.3579°
perigee height: 460 km
apogee height: 1331 km
right ascension of ascending node: 13.5769°
argument of perigee: 131.6263°
revolutions per day: 13.99375298
mean anomaly at epoch: 5.0638°
orbit number at epoch: 52102

The dashed part of the orbit path shows where the satellite is in the earth's shadow,  

DLR